Regional Weather Roundup
Issued by NWS

Home | Current Version | Previous Version | Text Only | Print | Product List | Glossary On
Versions: 1 2 3 4 5 6 7 8 9 10 11 12 13 14 15 16 17 18 19 20 21 22 23 24 25 26 27
000
ASUS45 KBOI 241010
RWRID
WEATHER ROUNDUP FOR IDAHO
NATIONAL WEATHER SERVICE BOISE ID
400 AM MDT THU APR 24 2014

NOTE: "FAIR" INDICATES FEW OR NO CLOUDS BELOW 12000 FEET
WITH NO SIGNIFICANT WEATHER AND/OR OBSTRUCTIONS TO VISIBILITY

IDZ012-014-241100-
SOUTHWEST IDAHO


CITY           SKY/WX    TMP DP  RH WIND       PRES   REMARKS
BOISE          CLOUDY    48  34  58 CALM      29.93F
CALDWELL       CLOUDY    52  28  40 SW9       29.95S
MOUNTAIN HOME  CLOUDY    45  29  55 E16       29.93F
$$

IDZ016-017-241100-
SOUTHCENTRAL IDAHO


CITY           SKY/WX    TMP DP  RH WIND       PRES   REMARKS
BURLEY         FAIR      39  28  64 S13       29.96F WCI  31
JEROME         CLOUDY    42  28  57 SE7       29.97F
TWIN FALLS     FAIR      46  25  43 S14       29.95F
$$

IDZ019>023-241100-
SOUTHEAST IDAHO


CITY           SKY/WX    TMP DP  RH WIND       PRES   REMARKS
IDAHO FALLS    CLEAR     35  26  69 CALM      29.99S
POCATELLO      CLEAR     43  23  45 S15       29.99F
REXBURG        CLEAR     38  23  55 S10       29.98F WCI  31
$$

IDZ006-010-011-018-031-032-241100-
CENTRAL IDAHO MOUNTAINS


CITY           SKY/WX    TMP DP  RH WIND       PRES   REMARKS
MCCALL         LGT RAIN  36  31  82 SE9       29.90S WCI  29
HAILEY         CLOUDY    36  27  69 NW6       30.00S WCI  31
STANLEY          N/A     35  24  64 S7        29.94F WCI  29
SALMON         CLOUDY    41  25  52 CALM      29.88F
CHALLIS        CLOUDY    41  21  44 S9        29.92F
$$

IDZ002-004-006-007-026-241100-
NORTHERN IDAHO


CITY           SKY/WX    TMP DP  RH WIND       PRES   REMARKS
LEWISTON       CLOUDY    44  39  82 E12       29.82F
LOWELL           N/A     41  39  93 CALM      29.90F
COEUR D`ALENE  MOCLDY    41  37  87 S6        29.81F
MULLAN PASS    SNOW      28  27  96 VRB3      29.76F VSB 1/2
$$



USA.gov is the U.S. government's official web portal to all federal, state and local government web resources and services.